Lid_Strength_Index
10 10 9 6 3 2 2 3 3 3 3 3 2 2 1 2 2 1 1 1 2 2 2 2 2 3 3 3 2 3 3 4
11 11 12 10 6 5 4 3 3 2 2 2 2 2 2 2 2 2 1 1 2 2 2 2 2 2 3 3 4 5 4 8
11 11 11 12 11 8 5 5 4 4 3 3 2 2 3 3 3 2 2 2 2 2 2 3 3 3 4 4 5 6 7 9
11 11 11 11 11 11 10 10 9 6 5 5 5 3 3 3 3 3 3 3 3 3 3 3 3 4 5 4 6 7 7 8
11 11 11 11 10 10 10 10 10 10 9 8 7 5 5 4 4 4 3 3 3 3 3 4 5 6 6 6 7 8 8 9
11 11 11 11 10 10 10 10 9 9 10 10 9 8 7 6 5 5 6 6 6 6 7 7 7 7 7 7 7 8 9 10
11 11 11 10 10 10 10 10 9 10 10 10 10 10 9 9 9 9 9 10 11 11 11 10 8 9 10 9 9 11 11 13
10 10 10 10 10 10 10 10 10 10 11 11 12 11 11 11 11 11 11 11 11 11 11 11 10 10 10 11 11 12 13 13
10 10 10 10 10 10 11 11 12 12 12 12 12 13 13 11 12 12 12 12 12 11 11 11 12 10 9 11 12 12 13 13
10 10 11 11 11 12 13 13 13 13 13 13 13 16 13 13 12 12 13 13 13 14 13 13 13 11 10 11 13 14 14 14
11 12 12 13 13 14 14 14 14 14 13 13 14 15 13 13 14 14 14 14 14 14 14 13 13 11 10 12 13 14 15 14
13 13 14 14 14 14 14 15 15 15 15 15 15 13 13 13 14 14 14 14 14 14 14 14 13 13 10 11 13 14 14 15
14 16 16 15 14 15 15 16 17 17 16 14 13 13 13 13 13 13 13 14 14 14 14 15 14 12 10 11 12 12 14 14
16 17 17 16 15 15 16 15 17 17 15 15 14 13 13 13 14 14 14 14 15 15 15 15 15 14 11 11 12 12 14 14
17 19 19 19 18 18 17 16 20 19 19 19 19 20 15 14 14 14 14 15 15 15 15 15 15 14 13 13 12 13 13 13
19 20 21 21 21 22 20 20 19 19 20 20 20 21 21 19 18 15 15 14 14 14 14 15 15 14 12 13 13 13 13 14
22 23 24 24 24 24 23 21 21 20 20 20 20 21 21 21 20 14 13 12 12 12 14 18 13 12 11 11 12 12 12 17
24 25 26 26 25 26 25 23 22 21 21 21 21 21 23 23 23 22 19 14 12 12 12 12 12 12 11 11 11 11 11 17
27 28 28 27 28 27 26 24 24 24 24 24 25 25 25 25 25 26 25 24 18 15 14 13 13 13 12 12 11 13 12 14
29 30 29 29 29 29 28 26 26 24 25 27 27 26 26 26 25 26 26 26 20 18 19 19 14 13 13 12 15 15 15 15